This is the latest recevied weather packets stored in our database for station/object N8HON. If no packets are shown the sender has not sent any weather packets the latest 10 day(s).
| Time | Temp. | Humidity | Pressure | Rain* | Wind** | Luminosity | Snow |
|---|---|---|---|---|---|---|---|
| 1778257533 | 17.78° C | 35% | 1013.9 hPa | 0 mm | - | 757 W/m² | - |
| 1778257231 | 17.78° C | 35% | 1013.9 hPa | 0 mm | - | 722 W/m² | - |
| 1778256927 | 17.78° C | 34% | 1013.8 hPa | 0 mm | - | 705 W/m² | - |
| 1778256624 | 17.22° C | 37% | 1013.3 hPa | 0 mm | - | 659 W/m² | - |
| 1778256323 | 16.67° C | 36% | 1013.7 hPa | 0 mm | - | 597 W/m² | - |
| 1778256020 | 16.67° C | 40% | 1013.7 hPa | 0 mm | - | 594 W/m² | - |
| 1778255717 | 16.67° C | 41% | 1013.7 hPa | 0 mm | - | 703 W/m² | - |
| 1778255414 | 16.11° C | 41% | 1013.8 hPa | 0 mm | - | 711 W/m² | - |
| 1778255111 | 16.67° C | 36% | 1014.2 hPa | 0 mm | - | 705 W/m² | - |
| 1778254808 | 16.67° C | 39% | 1014 hPa | 0 mm | - | 612 W/m² | - |
| 1778254505 | 16.11° C | 39% | 1014.1 hPa | 0 mm | - | 727 W/m² | - |
| 1778254201 | 16.11° C | 38% | 1014 hPa | 0 mm | - | 689 W/m² | - |
| 1778253898 | 16.67° C | 38% | 1013.8 hPa | 0 mm | - | 689 W/m² | - |
| 1778253594 | 15.56° C | 41% | 1013.9 hPa | 0 mm | - | 710 W/m² | - |
| 1778253291 | 15.56° C | 39% | 1014.1 hPa | 0 mm | - | 492 W/m² | - |
| 1778252987 | 15° C | 42% | 1014.2 hPa | 0 mm | - | 788 W/m² | - |
| 1778252684 | 15.56° C | 41% | 1014.2 hPa | 0 mm | - | 114 W/m² | - |
| 1778252379 | 15° C | 43% | 1014.3 hPa | 0 mm | - | 151 W/m² | - |
| 1778252076 | 15.56° C | 41% | 1014.4 hPa | 0 mm | - | 603 W/m² | - |
| 1778251773 | 14.44° C | 44% | 1014.4 hPa | 0 mm | - | 377 W/m² | - |
| 1778251471 | 13.89° C | 46% | 1014.3 hPa | 0 mm | - | 134 W/m² | - |
| 1778251168 | 14.44° C | 44% | 1014.3 hPa | 0 mm | - | 174 W/m² | - |
| 1778250866 | 15° C | 45% | 1014.2 hPa | 0 mm | - | 799 W/m² | - |
| 1778250562 | 15° C | 46% | 1014.3 hPa | 0 mm | - | 754 W/m² | - |
| 1778250259 | 13.89° C | 44% | 1014.3 hPa | 0 mm | - | 642 W/m² | - |
* Rain latest hour (hover to see other rain measurements)
** Current wind speed in m/s (hover to see current wind gust speed)